| time (UTC) | temp C | wind direction | speed KPH | gust KPH | rain 1hr cm | rain 24hr cm | rain mn cm | humidity % | barometer mb |
| 20260903025549 | 25 | 360 | 0.0 | 0.0 | 0.00 | 0.03 | 0.00 | 85 | 1015.6 |
| 20260903025050 | 25 | 360 | 0.0 | 0.0 | 0.00 | 0.03 | 0.00 | 85 | 1015.6 |
| 20260903024551 | 25 | 360 | 0.0 | 0.0 | 0.00 | 0.03 | 0.00 | 85 | 1015.6 |
| 20260903024050 | 25 | 360 | 0.0 | 0.0 | 0.00 | 0.03 | 0.00 | 85 | 1015.6 |
| 20260903023549 | 25 | 360 | 0.0 | 0.0 | 0.00 | 0.03 | 0.00 | 85 | 1015.7 |
| 20260903023050 | 25 | 360 | 0.0 | 0.0 | 0.00 | 0.03 | 0.00 | 85 | 1015.7 |
| 20260903022552 | 25 | 360 | 0.0 | 0.0 | 0.00 | 0.03 | 0.00 | 85 | 1015.8 |
| 20260903022049 | 25 | 360 | 0.0 | 0.0 | 0.00 | 0.03 | 0.00 | 85 | 1015.8 |
| 20260903021549 | 25 | 360 | 0.0 | 0.0 | 0.00 | 0.03 | 0.00 | 85 | 1015.7 |
| 20260903021049 | 25 | 360 | 0.0 | 0.0 | 0.00 | 0.03 | 0.00 | 85 | 1015.8 |
| 20260903020548 | 25 | 360 | 0.0 | 0.0 | 0.00 | 0.03 | 0.00 | 84 | 1015.8 |
| 20260903020048 | 25 | 360 | 0.0 | 0.0 | 0.00 | 0.03 | 0.00 | 84 | 1015.8 |
| 20260903015548 | 25 | 360 | 0.0 | 0.0 | 0.00 | 0.03 | 0.00 | 84 | 1015.8 |
| 20260903015049 | 26 | 360 | 0.0 | 0.0 | 0.00 | 0.03 | 0.00 | 84 | 1015.8 |
| 20260903014551 | 26 | 360 | 0.0 | 0.0 | 0.00 | 0.03 | 0.00 | 84 | 1015.7 |
| 20260903014048 | 26 | 360 | 0.0 | 0.0 | 0.00 | 0.03 | 0.00 | 83 | 1015.7 |
| 20260903013549 | 26 | 360 | 0.0 | 0.0 | 0.00 | 0.03 | 0.00 | 83 | 1015.7 |
| 20260903013055 | 26 | 360 | 0.0 | 0.0 | 0.00 | 0.03 | 0.00 | 83 | 1015.7 |
| 20260903012546 | 26 | 360 | 0.0 | 0.0 | 0.00 | 0.03 | 0.00 | 82 | 1015.7 |
| 20260903012047 | 26 | 360 | 0.0 | 0.0 | 0.00 | 0.03 | 0.00 | 82 | 1015.7 |
| 20260903011548 | 26 | 360 | 0.0 | 0.0 | 0.00 | 0.03 | 0.00 | 82 | 1015.7 |
| 20260903011046 | 26 | 360 | 0.0 | 0.0 | 0.00 | 0.03 | 0.00 | 81 | 1015.6 |
| 20260903010546 | 26 | 360 | 0.0 | 0.0 | 0.00 | 0.03 | 0.00 | 80 | 1015.6 |
| 20260903010048 | 26 | 360 | 0.0 | 0.0 | 0.00 | 0.03 | 0.00 | 80 | 1015.5 |
| 20260903005549 | 26 | 360 | 0.0 | 0.0 | 0.00 | 0.03 | 0.00 | 80 | 1015.4 |
| 20260903005048 | 27 | 360 | 0.0 | 0.0 | 0.00 | 0.03 | 0.00 | 80 | 1015.4 |
| 20260903004545 | 27 | 360 | 0.0 | 0.0 | 0.00 | 0.03 | 0.00 | 79 | 1015.5 |
| 20260903004048 | 27 | 360 | 0.0 | 0.0 | 0.00 | 0.03 | 0.00 | 79 | 1015.4 |
| 20260903003546 | 27 | 360 | 0.0 | 0.0 | 0.00 | 0.03 | 0.00 | 79 | 1015.3 |
| 20260903003048 | 27 | 360 | 0.0 | 0.0 | 0.00 | 0.03 | 0.00 | 79 | 1015.1 |
| 20260903002545 | 27 | 360 | 0.0 | 0.0 | 0.00 | 0.03 | 0.00 | 79 | 1015.2 |
| 20260903002043 | 27 | 360 | 0.0 | 0.0 | 0.00 | 0.03 | 0.00 | 79 | 1015.1 |
| 20260903001544 | 27 | 360 | 0.0 | 0.0 | 0.00 | 0.03 | 0.00 | 78 | 1015.2 |
| 20260903001046 | 27 | 360 | 0.0 | 0.0 | 0.00 | 0.03 | 0.00 | 78 | 1015.1 |
| 20260903000544 | 27 | 254 | 0.0 | 0.0 | 0.00 | 0.03 | 0.00 | 77 | 1015.2 |
| 20260903000046 | 28 | 254 | 0.0 | 0.0 | 0.00 | 0.03 | 0.00 | 76 | 1015.1 |
| 20260902235544 | 28 | 254 | 0.0 | 0.0 | 0.00 | 0.03 | 0.00 | 76 | 1015.1 |
| 20260902235045 | 28 | 254 | 0.0 | 0.0 | 0.00 | 0.03 | 0.00 | 75 | 1015.2 |
| 20260902234557 | 28 | 254 | 0.0 | 0.0 | 0.00 | 0.03 | 0.00 | 74 | 1015.1 |
| 20260902234045 | 29 | 254 | 0.0 | 0.0 | 0.00 | 0.03 | 0.00 | 73 | 1015.0 |
| 20260902233543 | 30 | 254 | 0.0 | 0.0 | 0.00 | 0.03 | 0.00 | 72 | 1015.0 |
| 20260902233044 | 30 | 254 | 0.0 | 0.0 | 0.00 | 0.03 | 0.00 | 70 | 1014.9 |
| 20260902232543 | 30 | 254 | 0.0 | 0.0 | 0.00 | 0.03 | 0.00 | 70 | 1015.0 |
| 20260902232043 | 30 | 207 | 0.0 | 0.0 | 0.00 | 0.03 | 0.00 | 70 | 1014.9 |
| 20260902231542 | 30 | 207 | 0.0 | 0.0 | 0.00 | 0.03 | 0.00 | 69 | 1014.9 |
| 20260902231042 | 30 | 207 | 0.0 | 0.0 | 0.00 | 0.03 | 0.00 | 69 | 1015.0 |
| 20260902230545 | 31 | 207 | 0.0 | 0.0 | 0.00 | 0.03 | 0.00 | 69 | 1014.9 |
| 20260902230042 | 31 | 207 | 0.0 | 0.0 | 0.00 | 0.03 | 0.00 | 69 | 1014.8 |
| 20260902225542 | 31 | 207 | 0.0 | 0.0 | 0.00 | 0.03 | 0.00 | 68 | 1014.8 |
| 20260902225046 | 31 | 206 | 0.0 | 0.0 | 0.00 | 0.03 | 0.00 | 67 | 1014.9 |
| 20260902224604 | 31 | 206 | 0.0 | 0.0 | 0.00 | 0.03 | 0.00 | 66 | 1015.0 |
| 20260902224041 | 31 | 246 | 0.0 | 0.0 | 0.00 | 0.03 | 0.00 | 65 | 1015.0 |
| 20260902223543 | 31 | 225 | 0.0 | 0.0 | 0.00 | 0.03 | 0.00 | 65 | 1015.0 |
| 20260902223040 | 31 | 223 | 0.0 | 0.0 | 0.00 | 0.03 | 0.00 | 65 | 1015.0 |
| 20260902222541 | 32 | 249 | 0.0 | 0.0 | 0.00 | 0.03 | 0.00 | 64 | 1015.0 |
| 20260902222039 | 32 | 224 | 0.0 | 0.0 | 0.00 | 0.03 | 0.00 | 64 | 1015.1 |
| 20260902221539 | 32 | 235 | 0.0 | 0.0 | 0.00 | 0.03 | 0.00 | 63 | 1015.1 |
| 20260902221039 | 32 | 246 | 0.0 | 0.0 | 0.00 | 0.03 | 0.00 | 63 | 1015.1 |
| 20260902220541 | 32 | 243 | 0.0 | 0.0 | 0.00 | 0.03 | 0.00 | 61 | 1015.2 |
| 20260902220042 | 32 | 244 | 0.0 | 0.0 | 0.00 | 0.03 | 0.00 | 61 | 1015.2 |
| 20260902215539 | 32 | 238 | 0.0 | 0.0 | 0.00 | 0.03 | 0.00 | 62 | 1015.2 |
| 20260902215037 | 32 | 233 | 0.0 | 0.0 | 0.00 | 0.03 | 0.00 | 62 | 1015.2 |
| 20260902214537 | 32 | 232 | 0.0 | 0.0 | 0.00 | 0.03 | 0.00 | 60 | 1015.3 |
| 20260902214039 | 32 | 232 | 0.0 | 0.0 | 0.00 | 0.03 | 0.00 | 61 | 1015.2 |
| 20260902213538 | 32 | 240 | 0.0 | 0.0 | 0.00 | 0.03 | 0.00 | 60 | 1015.3 |
| 20260902213036 | 32 | 203 | 0.0 | 0.0 | 0.00 | 0.03 | 0.00 | 61 | 1015.3 |
| 20260902212539 | 32 | 233 | 0.0 | 0.0 | 0.00 | 0.03 | 0.00 | 61 | 1015.3 |
| 20260902212035 | 32 | 261 | 0.0 | 1.6 | 0.00 | 0.03 | 0.00 | 61 | 1015.4 |
| 20260902211537 | 32 | 248 | 0.0 | 1.6 | 0.00 | 0.03 | 0.00 | 60 | 1015.3 |
| 20260902211035 | 32 | 229 | 0.0 | 1.6 | 0.00 | 0.03 | 0.00 | 59 | 1015.4 |
| 20260902210535 | 32 | 238 | 0.0 | 0.0 | 0.00 | 0.03 | 0.00 | 59 | 1015.4 |
| 20260902210035 | 32 | 225 | 0.0 | 0.0 | 0.00 | 0.03 | 0.00 | 61 | 1015.4 |
| 20260902205533 | 32 | 113 | 0.0 | 0.0 | 0.00 | 0.03 | 0.00 | 61 | 1015.4 |
| 20260902205035 | 32 | 185 | 0.0 | 0.0 | 0.00 | 0.03 | 0.00 | 59 | 1015.4 |
| 20260902204539 | 32 | 248 | 0.0 | 0.0 | 0.00 | 0.03 | 0.00 | 60 | 1015.6 |
| 20260902204033 | 32 | 246 | 0.0 | 0.0 | 0.00 | 0.03 | 0.00 | 60 | 1015.7 |
| 20260902203532 | 32 | 250 | 0.0 | 0.0 | 0.00 | 0.03 | 0.00 | 60 | 1015.7 |
| 20260902203033 | 32 | 228 | 0.0 | 1.6 | 0.00 | 0.03 | 0.00 | 59 | 1015.7 |
| 20260902202532 | 32 | 242 | 0.0 | 4.8 | 0.00 | 0.03 | 0.00 | 58 | 1015.8 |
| 20260902202031 | 32 | 230 | 0.0 | 4.8 | 0.00 | 0.03 | 0.00 | 57 | 1015.8 |
| 20260902201532 | 32 | 254 | 0.0 | 1.6 | 0.00 | 0.03 | 0.00 | 58 | 1015.9 |
| 20260902201030 | 32 | 227 | 0.0 | 1.6 | 0.00 | 0.03 | 0.00 | 59 | 1015.8 |
| 20260902200531 | 32 | 209 | 0.0 | 0.0 | 0.00 | 0.03 | 0.00 | 60 | 1015.9 |
| 20260902200047 | 32 | 228 | 0.0 | 1.6 | 0.00 | 0.03 | 0.00 | 61 | 1016.1 |
| 20260902195529 | 32 | 259 | 0.0 | 4.8 | 0.00 | 0.03 | 0.00 | 58 | 1016.0 |
| 20260902195029 | 32 | 208 | 0.0 | 4.8 | 0.00 | 0.03 | 0.00 | 58 | 1016.1 |
| 20260902194529 | 33 | 230 | 0.0 | 4.8 | 0.00 | 0.03 | 0.00 | 59 | 1016.2 |
| 20260902194026 | 32 | 223 | 0.0 | 4.8 | 0.00 | 0.03 | 0.00 | 61 | 1016.2 |
| 20260902193525 | 32 | 238 | 0.0 | 4.8 | 0.00 | 0.03 | 0.00 | 63 | 1016.2 |
| 20260902193025 | 32 | 277 | 0.0 | 4.8 | 0.00 | 0.03 | 0.00 | 62 | 1016.4 |
| 20260902192524 | 32 | 241 | 0.0 | 1.6 | 0.00 | 0.03 | 0.00 | 61 | 1016.4 |
| 20260902192024 | 32 | 215 | 0.0 | 1.6 | 0.00 | 0.03 | 0.00 | 61 | 1016.4 |
| 20260902191530 | 32 | 199 | 0.0 | 1.6 | 0.00 | 0.03 | 0.00 | 63 | 1016.4 |
| 20260902191024 | 32 | 244 | 0.0 | 1.6 | 0.00 | 0.03 | 0.00 | 61 | 1016.4 |
| 20260902190528 | 32 | 252 | 0.0 | 0.0 | 0.00 | 0.03 | 0.00 | 63 | 1016.5 |
| 20260902190042 | 32 | 259 | 0.0 | 0.0 | 0.00 | 0.03 | 0.00 | 65 | 1016.6 |
| 20260902185524 | 32 | 252 | 0.0 | 1.6 | 0.00 | 0.03 | 0.00 | 63 | 1016.6 |
| 20260902185023 | 32 | 255 | 0.0 | 0.0 | 0.00 | 0.03 | 0.00 | 61 | 1016.6 |
| 20260902184524 | 32 | 219 | 0.0 | 0.0 | 0.00 | 0.03 | 0.00 | 60 | 1016.6 |
| 20260902184022 | 32 | 246 | 0.0 | 0.0 | 0.00 | 0.03 | 0.00 | 59 | 1016.6 |
| 20260902183522 | 32 | 233 | 0.0 | 0.0 | 0.00 | 0.03 | 0.00 | 62 | 1016.6 |
| 20260902183020 | 32 | 256 | 0.0 | 0.0 | 0.00 | 0.03 | 0.00 | 63 | 1016.8 |
| 20260902182519 | 32 | 253 | 0.0 | 3.2 | 0.00 | 0.03 | 0.00 | 63 | 1016.8 |
| 20260902182019 | 32 | 273 | 0.0 | 3.2 | 0.00 | 0.03 | 0.00 | 63 | 1016.8 |
| 20260902181518 | 32 | 254 | 0.0 | 8.0 | 0.00 | 0.03 | 0.00 | 62 | 1016.8 |
| 20260902181018 | 32 | 303 | 0.0 | 11.3 | 0.00 | 0.03 | 0.00 | 62 | 1016.9 |
| 20260902180517 | 32 | 264 | 0.0 | 11.3 | 0.00 | 0.03 | 0.00 | 65 | 1016.9 |
| 20260902180017 | 32 | 256 | 0.0 | 3.2 | 0.00 | 0.03 | 0.00 | 63 | 1016.9 |
| 20260902175517 | 32 | 115 | 0.0 | 0.0 | 0.00 | 0.03 | 0.00 | 63 | 1017.0 |
| 20260902175016 | 32 | 264 | 0.0 | 4.8 | 0.00 | 0.03 | 0.00 | 62 | 1017.1 |
| 20260902174515 | 32 | 232 | 0.0 | 4.8 | 0.00 | 0.03 | 0.00 | 64 | 1017.2 |
| 20260902173512 | 31 | 261 | 0.0 | 1.6 | 0.00 | 0.03 | 0.00 | 65 | 1017.3 |
| 20260902173012 | 31 | 280 | 0.0 | 3.2 | 0.00 | 0.03 | 0.00 | 64 | 1017.3 |
| 20260902172510 | 31 | 258 | 0.0 | 3.2 | 0.00 | 0.03 | 0.00 | 66 | 1017.4 |
| 20260902172013 | 31 | 264 | 0.0 | 1.6 | 0.00 | 0.03 | 0.00 | 64 | 1017.4 |
| 20260902171510 | 31 | 238 | 0.0 | 4.8 | 0.00 | 0.03 | 0.00 | 67 | 1017.6 |
| 20260902171012 | 31 | 274 | 0.0 | 4.8 | 0.00 | 0.03 | 0.00 | 64 | 1017.5 |
| 20260902170509 | 31 | 261 | 0.0 | 3.2 | 0.00 | 0.03 | 0.00 | 66 | 1017.5 |
| 20260902170009 | 31 | 282 | 0.0 | 6.4 | 0.00 | 0.03 | 0.00 | 67 | 1017.6 |
| 20260902165508 | 31 | 242 | 0.0 | 6.4 | 0.00 | 0.03 | 0.00 | 66 | 1017.6 |
| 20260902165010 | 31 | 263 | 0.0 | 4.8 | 0.00 | 0.03 | 0.00 | 64 | 1017.7 |
| 20260902164510 | 31 | 248 | 0.0 | 0.0 | 0.00 | 0.03 | 0.00 | 68 | 1017.7 |
| 20260902164005 | 31 | 269 | 0.0 | 6.4 | 0.00 | 0.03 | 0.00 | 69 | 1017.8 |
| 20260902163504 | 31 | 259 | 0.0 | 6.4 | 0.00 | 0.03 | 0.00 | 68 | 1017.7 |
| 20260902163003 | 30 | 268 | 0.0 | 3.2 | 0.00 | 0.03 | 0.00 | 68 | 1017.7 |
| 20260902162504 | 30 | 252 | 0.0 | 4.8 | 0.00 | 0.03 | 0.00 | 66 | 1017.8 |
| 20260902162004 | 30 | 274 | 0.0 | 17.7 | 0.00 | 0.03 | 0.00 | 67 | 1017.6 |
| 20260902161505 | 30 | 293 | 0.0 | 3.2 | 0.00 | 0.03 | 0.00 | 68 | 1017.7 |
| 20260902161001 | 31 | 270 | 0.0 | 0.0 | 0.00 | 0.03 | 0.00 | 70 | 1017.7 |
| 20260902160559 | 30 | 273 | 0.0 | 0.0 | 0.00 | 0.03 | 0.00 | 71 | 1017.7 |
| 20260902160105 | 30 | 265 | 0.0 | 0.0 | 0.00 | 0.03 | 0.00 | 70 | 1017.7 |
| 20260902155558 | 30 | 253 | 0.0 | 0.0 | 0.00 | 0.03 | 0.00 | 71 | 1017.7 |
| 20260902155058 | 30 | 289 | 0.0 | 0.0 | 0.00 | 0.03 | 0.00 | 69 | 1017.7 |
| 20260902154555 | 30 | 257 | 0.0 | 0.0 | 0.00 | 0.03 | 0.00 | 71 | 1017.6 |
| 20260902154053 | 30 | 242 | 0.0 | 1.6 | 0.00 | 0.03 | 0.00 | 72 | 1017.6 |
| 20260902153551 | 30 | 267 | 0.0 | 1.6 | 0.00 | 0.03 | 0.00 | 68 | 1017.7 |
| 20260902153050 | 30 | 266 | 0.0 | 1.6 | 0.00 | 0.03 | 0.00 | 69 | 1017.6 |
| 20260902152550 | 30 | 291 | 0.0 | 0.0 | 0.00 | 0.03 | 0.00 | 69 | 1017.7 |
| 20260902152048 | 29 | 262 | 0.0 | 1.6 | 0.00 | 0.03 | 0.00 | 71 | 1017.7 |
| 20260902151546 | 29 | 258 | 0.0 | 1.6 | 0.00 | 0.03 | 0.00 | 72 | 1017.7 |
| 20260902151045 | 29 | 286 | 0.0 | 1.6 | 0.00 | 0.03 | 0.00 | 72 | 1017.7 |
| 20260902150546 | 29 | 284 | 0.0 | 6.4 | 0.00 | 0.03 | 0.00 | 75 | 1017.8 |
| 20260902150042 | 29 | 288 | 0.0 | 6.4 | 0.00 | 0.03 | 0.00 | 74 | 1017.7 |
| 20260902145540 | 28 | 288 | 0.0 | 3.2 | 0.00 | 0.03 | 0.00 | 75 | 1017.7 |
| 20260902145039 | 28 | 236 | 0.0 | 3.2 | 0.00 | 0.03 | 0.00 | 74 | 1017.6 |
| 20260902144542 | 28 | 257 | 0.0 | 3.2 | 0.00 | 0.03 | 0.00 | 76 | 1017.7 |
| 20260902144037 | 28 | 265 | 0.0 | 3.2 | 0.00 | 0.03 | 0.00 | 75 | 1017.7 |
| 20260902143537 | 28 | 248 | 0.0 | 0.0 | 0.00 | 0.03 | 0.00 | 76 | 1017.6 |
| 20260902143034 | 28 | 227 | 0.0 | 0.0 | 0.00 | 0.03 | 0.00 | 77 | 1017.7 |
| 20260902142532 | 28 | 240 | 0.0 | 0.0 | 0.00 | 0.03 | 0.00 | 76 | 1017.8 |
| 20260902142031 | 28 | 265 | 0.0 | 0.0 | 0.00 | 0.03 | 0.00 | 77 | 1017.7 |
| 20260902141536 | 27 | 271 | 0.0 | 0.0 | 0.00 | 0.03 | 0.00 | 78 | 1017.7 |
| 20260902141028 | 27 | 230 | 0.0 | 0.0 | 0.00 | 0.03 | 0.00 | 78 | 1017.7 |
| 20260902140527 | 27 | 276 | 0.0 | 3.2 | 0.00 | 0.03 | 0.00 | 78 | 1017.7 |
| 20260902140025 | 27 | 257 | 0.0 | 3.2 | 0.00 | 0.03 | 0.00 | 78 | 1017.6 |
| 20260902135523 | 27 | 254 | 0.0 | 0.0 | 0.00 | 0.03 | 0.00 | 78 | 1017.7 |
| 20260902135022 | 27 | 261 | 0.0 | 0.0 | 0.00 | 0.03 | 0.00 | 78 | 1017.7 |
| 20260902134520 | 27 | 297 | 0.0 | 0.0 | 0.00 | 0.03 | 0.00 | 79 | 1017.6 |
| 20260902134019 | 26 | 286 | 0.0 | 0.0 | 0.00 | 0.03 | 0.00 | 78 | 1017.5 |
| 20260902133517 | 26 | 252 | 0.0 | 0.0 | 0.00 | 0.03 | 0.00 | 79 | 1017.6 |
| 20260902133017 | 26 | 261 | 0.0 | 1.6 | 0.00 | 0.03 | 0.00 | 79 | 1017.6 |
| 20260902132519 | 26 | 265 | 0.0 | 1.6 | 0.00 | 0.03 | 0.00 | 80 | 1017.6 |
| 20260902132014 | 26 | 264 | 0.0 | 4.8 | 0.00 | 0.03 | 0.00 | 81 | 1017.6 |
| 20260902131521 | 26 | 281 | 0.0 | 4.8 | 0.00 | 0.03 | 0.00 | 81 | 1017.7 |
| 20260902131012 | 25 | 236 | 0.0 | 0.0 | 0.00 | 0.03 | 0.00 | 83 | 1017.7 |
| 20260902130510 | 25 | 244 | 0.0 | 0.0 | 0.00 | 0.03 | 0.00 | 83 | 1017.6 |
| 20260902130008 | 25 | 274 | 0.0 | 0.0 | 0.00 | 0.03 | 0.00 | 84 | 1017.6 |
| 20260902125508 | 25 | 265 | 0.0 | 0.0 | 0.00 | 0.03 | 0.00 | 85 | 1017.6 |
| 20260902125007 | 25 | 256 | 0.0 | 0.0 | 0.00 | 0.03 | 0.00 | 85 | 1017.7 |
| 20260902124508 | 24 | 261 | 0.0 | 0.0 | 0.00 | 0.03 | 0.00 | 85 | 1017.6 |
| 20260902124006 | 24 | 260 | 0.0 | 0.0 | 0.00 | 0.03 | 0.00 | 85 | 1017.6 |
| 20260902123505 | 24 | 260 | 0.0 | 0.0 | 0.00 | 0.03 | 0.00 | 86 | 1017.6 |
| 20260902123005 | 24 | 263 | 0.0 | 0.0 | 0.00 | 0.03 | 0.00 | 86 | 1017.5 |
| 20260902122507 | 24 | 263 | 0.0 | 0.0 | 0.00 | 0.03 | 0.00 | 86 | 1017.4 |
| 20260902122004 | 23 | 264 | 0.0 | 0.0 | 0.00 | 0.03 | 0.00 | 87 | 1017.5 |
| 20260902121504 | 23 | 268 | 0.0 | 0.0 | 0.00 | 0.03 | 0.00 | 87 | 1017.5 |
| 20260902121004 | 23 | 269 | 0.0 | 0.0 | 0.00 | 0.03 | 0.00 | 87 | 1017.4 |
| 20260902120504 | 23 | 360 | 0.0 | 0.0 | 0.00 | 0.03 | 0.00 | 87 | 1017.4 |
| 20260902120001 | 23 | 360 | 0.0 | 0.0 | 0.00 | 0.03 | 0.00 | 87 | 1017.4 |
| 20260902115500 | 23 | 360 | 0.0 | 0.0 | 0.00 | 0.03 | 0.00 | 87 | 1017.4 |
| 20260902115104 | 23 | 360 | 0.0 | 0.0 | 0.00 | 0.03 | 0.00 | 88 | 1017.3 |
| 20260902114600 | 23 | 149 | 0.0 | 0.0 | 0.00 | 0.03 | 0.00 | 88 | 1017.4 |
| 20260902114059 | 23 | 360 | 0.0 | 0.0 | 0.00 | 0.03 | 0.00 | 88 | 1017.2 |
| 20260902113556 | 23 | 360 | 0.0 | 0.0 | 0.00 | 0.03 | 0.00 | 88 | 1017.2 |
| 20260902113110 | 23 | 360 | 0.0 | 0.0 | 0.00 | 0.03 | 0.00 | 88 | 1017.0 |
| 20260902112555 | 23 | 360 | 0.0 | 0.0 | 0.00 | 0.03 | 0.00 | 88 | 1017.1 |
| 20260902112054 | 22 | 360 | 0.0 | 0.0 | 0.00 | 0.03 | 0.00 | 88 | 1017.1 |
| 20260902111600 | 22 | 360 | 0.0 | 0.0 | 0.00 | 0.03 | 0.00 | 88 | 1017.1 |
| 20260902111053 | 22 | 360 | 0.0 | 0.0 | 0.00 | 0.03 | 0.00 | 88 | 1017.1 |
| 20260902110555 | 22 | 360 | 0.0 | 0.0 | 0.00 | 0.03 | 0.00 | 88 | 1017.1 |
| 20260902110055 | 22 | 360 | 0.0 | 0.0 | 0.00 | 0.03 | 0.00 | 87 | 1017.0 |
| 20260902105555 | 23 | 360 | 0.0 | 0.0 | 0.00 | 0.03 | 0.00 | 87 | 1017.1 |
| 20260902105052 | 23 | 360 | 0.0 | 0.0 | 0.00 | 0.03 | 0.00 | 87 | 1017.1 |
| 20260902104552 | 23 | 360 | 0.0 | 0.0 | 0.00 | 0.03 | 0.00 | 88 | 1017.1 |
| 20260902104051 | 23 | 360 | 0.0 | 0.0 | 0.00 | 0.03 | 0.00 | 88 | 1017.0 |
| 20260902103651 | 23 | 360 | 0.0 | 0.0 | 0.00 | 0.03 | 0.00 | 88 | 1017.0 |
| 20260902103050 | 23 | 360 | 0.0 | 0.0 | 0.00 | 0.03 | 0.00 | 88 | 1016.9 |
| 20260902102549 | 23 | 360 | 0.0 | 0.0 | 0.00 | 0.03 | 0.00 | 88 | 1016.9 |
| 20260902102048 | 23 | 360 | 0.0 | 0.0 | 0.00 | 0.03 | 0.00 | 87 | 1016.8 |
| 20260902101603 | 23 | 360 | 0.0 | 0.0 | 0.00 | 0.03 | 0.00 | 87 | 1016.8 |
| 20260902101048 | 23 | 360 | 0.0 | 0.0 | 0.00 | 0.03 | 0.00 | 87 | 1016.8 |
| 20260902100548 | 23 | 360 | 0.0 | 0.0 | 0.00 | 0.03 | 0.00 | 86 | 1016.8 |
| 20260902100048 | 23 | 360 | 0.0 | 0.0 | 0.00 | 0.03 | 0.00 | 86 | 1016.8 |
| 20260902095547 | 23 | 360 | 0.0 | 0.0 | 0.00 | 0.03 | 0.00 | 86 | 1016.9 |
| 20260902095046 | 23 | 360 | 0.0 | 0.0 | 0.00 | 0.03 | 0.00 | 86 | 1016.9 |
| 20260902094551 | 23 | 360 | 0.0 | 0.0 | 0.00 | 0.03 | 0.00 | 86 | 1016.9 |
| 20260902094046 | 23 | 360 | 0.0 | 0.0 | 0.00 | 0.03 | 0.00 | 85 | 1016.9 |
| 20260902093548 | 23 | 360 | 0.0 | 0.0 | 0.00 | 0.03 | 0.00 | 85 | 1016.9 |
| 20260902093043 | 23 | 360 | 0.0 | 0.0 | 0.00 | 0.03 | 0.00 | 85 | 1016.9 |
| 20260902092546 | 23 | 360 | 0.0 | 0.0 | 0.00 | 0.03 | 0.00 | 85 | 1016.9 |
| 20260902092042 | 23 | 360 | 0.0 | 0.0 | 0.00 | 0.03 | 0.00 | 84 | 1016.8 |
| 20260902091549 | 24 | 360 | 0.0 | 0.0 | 0.00 | 0.03 | 0.00 | 84 | 1016.9 |
| 20260902091041 | 24 | 360 | 0.0 | 0.0 | 0.00 | 0.03 | 0.00 | 84 | 1016.8 |
| 20260902090544 | 24 | 360 | 0.0 | 0.0 | 0.00 | 0.03 | 0.00 | 84 | 1016.9 |
| 20260902090040 | 24 | 360 | 0.0 | 0.0 | 0.00 | 0.03 | 0.00 | 84 | 1016.8 |
| 20260902085543 | 24 | 360 | 0.0 | 0.0 | 0.00 | 0.03 | 0.00 | 83 | 1016.8 |
| 20260902085040 | 24 | 360 | 0.0 | 0.0 | 0.00 | 0.03 | 0.00 | 83 | 1016.7 |
| 20260902084540 | 24 | 360 | 0.0 | 0.0 | 0.00 | 0.03 | 0.00 | 83 | 1016.7 |
| 20260902084040 | 24 | 360 | 0.0 | 0.0 | 0.00 | 0.03 | 0.00 | 83 | 1016.7 |
| 20260902083540 | 25 | 360 | 0.0 | 0.0 | 0.00 | 0.03 | 0.00 | 83 | 1016.6 |
| 20260902083039 | 25 | 360 | 0.0 | 0.0 | 0.00 | 0.03 | 0.00 | 83 | 1016.6 |
| 20260902082542 | 25 | 360 | 0.0 | 0.0 | 0.00 | 0.03 | 0.00 | 83 | 1016.5 |
| 20260902082039 | 25 | 360 | 0.0 | 0.0 | 0.00 | 0.03 | 0.00 | 83 | 1016.5 |
| 20260902081545 | 24 | 360 | 0.0 | 0.0 | 0.00 | 0.03 | 0.00 | 84 | 1016.4 |
| 20260902081038 | 24 | 360 | 0.0 | 0.0 | 0.00 | 0.03 | 0.00 | 84 | 1016.5 |
| 20260902080538 | 24 | 360 | 0.0 | 0.0 | 0.00 | 0.03 | 0.00 | 84 | 1016.5 |
| 20260902080038 | 24 | 360 | 0.0 | 0.0 | 0.00 | 0.03 | 0.00 | 85 | 1016.5 |
| 20260902075537 | 24 | 360 | 0.0 | 0.0 | 0.00 | 0.03 | 0.00 | 85 | 1016.5 |
| 20260902075037 | 24 | 360 | 0.0 | 0.0 | 0.00 | 0.03 | 0.00 | 85 | 1016.5 |
| 20260902074540 | 24 | 360 | 0.0 | 0.0 | 0.00 | 0.03 | 0.00 | 85 | 1016.5 |
| 20260902074037 | 24 | 360 | 0.0 | 0.0 | 0.00 | 0.03 | 0.00 | 85 | 1016.5 |
| 20260902073536 | 24 | 360 | 0.0 | 0.0 | 0.00 | 0.03 | 0.00 | 85 | 1016.5 |
| 20260902073035 | 24 | 360 | 0.0 | 0.0 | 0.00 | 0.03 | 0.00 | 85 | 1016.5 |
| 20260902072535 | 24 | 360 | 0.0 | 0.0 | 0.00 | 0.03 | 0.00 | 84 | 1016.4 |
| 20260902072036 | 24 | 360 | 0.0 | 0.0 | 0.00 | 0.03 | 0.00 | 84 | 1016.5 |
| 20260902071535 | 24 | 360 | 0.0 | 0.0 | 0.00 | 0.03 | 0.00 | 84 | 1016.4 |
| 20260902071037 | 24 | 360 | 0.0 | 0.0 | 0.00 | 0.03 | 0.00 | 83 | 1016.4 |
| 20260902070535 | 25 | 360 | 0.0 | 0.0 | 0.00 | 0.03 | 0.00 | 83 | 1016.4 |
| 20260902070034 | 25 | 360 | 0.0 | 0.0 | 0.00 | 0.03 | 0.00 | 83 | 1016.4 |
| 20260902065535 | 25 | 360 | 0.0 | 0.0 | 0.00 | 0.03 | 0.00 | 83 | 1016.5 |
| 20260902065036 | 25 | 360 | 0.0 | 0.0 | 0.00 | 0.03 | 0.00 | 83 | 1016.5 |
| 20260902064539 | 25 | 360 | 0.0 | 0.0 | 0.00 | 0.03 | 0.00 | 83 | 1016.5 |
| 20260902064034 | 25 | 360 | 0.0 | 0.0 | 0.00 | 0.03 | 0.00 | 83 | 1016.5 |
| 20260902063535 | 25 | 360 | 0.0 | 0.0 | 0.00 | 0.03 | 0.00 | 83 | 1016.6 |
| 20260902063033 | 25 | 360 | 0.0 | 0.0 | 0.00 | 0.03 | 0.00 | 83 | 1016.7 |
| 20260902062534 | 25 | 360 | 0.0 | 0.0 | 0.00 | 0.03 | 0.00 | 83 | 1016.7 |
| 20260902062033 | 24 | 360 | 0.0 | 0.0 | 0.00 | 0.03 | 0.00 | 83 | 1016.7 |
| 20260902061541 | 24 | 360 | 0.0 | 0.0 | 0.00 | 0.03 | 0.00 | 83 | 1016.8 |
| 20260902061033 | 24 | 360 | 0.0 | 0.0 | 0.00 | 0.03 | 0.00 | 83 | 1016.7 |
| 20260902060532 | 24 | 360 | 0.0 | 0.0 | 0.00 | 0.03 | 0.00 | 83 | 1016.7 |
| 20260902060037 | 24 | 360 | 0.0 | 0.0 | 0.00 | 0.03 | 0.00 | 83 | 1016.7 |
| 20260902055535 | 24 | 360 | 0.0 | 0.0 | 0.00 | 0.03 | 0.00 | 84 | 1016.6 |
| 20260902055031 | 24 | 360 | 0.0 | 0.0 | 0.00 | 0.03 | 0.00 | 84 | 1016.6 |
| 20260902054531 | 24 | 360 | 0.0 | 0.0 | 0.00 | 0.03 | 0.00 | 84 | 1016.5 |
| 20260902054034 | 24 | 360 | 0.0 | 0.0 | 0.00 | 0.03 | 0.00 | 84 | 1016.5 |
| 20260902053530 | 24 | 360 | 0.0 | 0.0 | 0.00 | 0.03 | 0.00 | 84 | 1016.4 |
| 20260902053036 | 24 | 360 | 0.0 | 0.0 | 0.00 | 0.03 | 0.00 | 83 | 1016.5 |
| 20260902052533 | 24 | 360 | 0.0 | 0.0 | 0.00 | 0.03 | 0.00 | 83 | 1016.5 |
| 20260902052029 | 24 | 360 | 0.0 | 0.0 | 0.00 | 0.03 | 0.00 | 83 | 1016.4 |
| 20260902051530 | 25 | 360 | 0.0 | 0.0 | 0.00 | 0.03 | 0.00 | 83 | 1016.4 |
| 20260902051028 | 25 | 360 | 0.0 | 0.0 | 0.00 | 0.03 | 0.00 | 83 | 1016.3 |
| 20260902050528 | 25 | 360 | 0.0 | 0.0 | 0.00 | 0.03 | 0.00 | 83 | 1016.3 |
| 20260902050027 | 25 | 360 | 0.0 | 0.0 | 0.00 | 0.03 | 0.00 | 83 | 1016.3 |
| 20260902045526 | 25 | 360 | 0.0 | 0.0 | 0.00 | 0.03 | 0.00 | 83 | 1016.3 |
| 20260902045026 | 25 | 360 | 0.0 | 0.0 | 0.00 | 0.03 | 0.00 | 83 | 1016.3 |
| 20260902044526 | 25 | 360 | 0.0 | 0.0 | 0.00 | 0.03 | 0.00 | 83 | 1016.3 |
| 20260902044026 | 25 | 360 | 0.0 | 0.0 | 0.00 | 0.03 | 0.00 | 83 | 1016.4 |
| 20260902043524 | 25 | 360 | 0.0 | 0.0 | 0.00 | 0.03 | 0.00 | 83 | 1016.3 |
| 20260902043028 | 25 | 360 | 0.0 | 0.0 | 0.00 | 0.03 | 0.00 | 83 | 1016.4 |
| 20260902042524 | 25 | 360 | 0.0 | 0.0 | 0.00 | 0.03 | 0.00 | 83 | 1016.3 |
| 20260902042024 | 25 | 360 | 0.0 | 0.0 | 0.00 | 0.03 | 0.00 | 83 | 1016.4 |
| 20260902041524 | 25 | 360 | 0.0 | 0.0 | 0.00 | 0.03 | 0.00 | 83 | 1016.4 |
| 20260902041023 | 25 | 360 | 0.0 | 0.0 | 0.00 | 0.03 | 0.00 | 83 | 1016.3 |
| 20260902040523 | 25 | 360 | 0.0 | 0.0 | 0.00 | 0.03 | 0.00 | 83 | 1016.3 |
| 20260902040022 | 25 | 360 | 0.0 | 0.0 | 0.00 | 0.03 | 0.00 | 84 | 1016.3 |
| 20260902035523 | 25 | 360 | 0.0 | 0.0 | 0.00 | 0.03 | 0.03 | 84 | 1016.3 |
| 20260902035023 | 25 | 360 | 0.0 | 0.0 | 0.00 | 0.03 | 0.03 | 84 | 1016.2 |
| 20260902034523 | 25 | 360 | 0.0 | 0.0 | 0.00 | 0.03 | 0.03 | 84 | 1016.2 |
| 20260902034021 | 25 | 360 | 0.0 | 0.0 | 0.00 | 0.03 | 0.03 | 84 | 1016.2 |
| 20260902033521 | 25 | 360 | 0.0 | 0.0 | 0.00 | 0.03 | 0.03 | 85 | 1016.2 |
| 20260902033033 | 25 | 360 | 0.0 | 0.0 | 0.00 | 0.03 | 0.03 | 85 | 1016.3 |
| 20260902032524 | 25 | 360 | 0.0 | 0.0 | 0.00 | 0.03 | 0.03 | 85 | 1016.3 |
| 20260902032021 | 25 | 360 | 0.0 | 0.0 | 0.03 | 0.03 | 0.03 | 85 | 1016.3 |
| 20260902031521 | 25 | 360 | 0.0 | 0.0 | 0.03 | 0.03 | 0.03 | 84 | 1016.4 |
| 20260902031022 | 25 | 360 | 0.0 | 0.0 | 0.03 | 0.03 | 0.03 | 84 | 1016.4 |
| 20260902030523 | 25 | 360 | 0.0 | 0.0 | 0.03 | 0.03 | 0.03 | 84 | 1016.5 |
| 20260902030020 | 25 | 360 | 0.0 | 0.0 | 0.03 | 0.03 | 0.03 | 84 | 1016.4 |